LFLBLFLC

Guest
Details From LFLB - Aix-Les-Bains
To LFLC - Clermont-Ferrand_Auvergne
Flight Number -
Tags generated
Created
Modified
Stats Distance 120 nm / 223 km
Max Altitude 14,300 ft / 4,359 m
Waypoints 3
Social Downloads 2
Likes 0
Share VATSIM

Download

Looking for another format? Having issues loading an existing format? Contact us
Advertisement - Login to hide

Notes

Basic altitude profile: - Ascent Rate: 2500ft/min - Ascent Speed: 250kts - Cruise Altitude: 35000ft - Cruise Speed: 420kts - Descent Rate: 1500ft/min - Descent Speed: 250kts Options: - Use NATs: no - Use PACOTS: no - Use low airways: no - Use high airways: no

Route

LFLB 4600N0500E LFLC

ID Type Via Altitude Latitude Longitude Leg Dist Tot Dist Heading (true) Name
O LFLB APT - 0 ft / 0 m 45.63623˚ 5.88090˚ - 0 nm - Aix-Les-Bains
4600N0500E LATLON - 14,300 ft / 4,359 m 46.00000˚ 5.00000˚ 42 nm 42 nm 301° / 300° -
O LFLC APT - 0 ft / 0 m 45.78671˚ 3.16997˚ 77 nm 120 nm 261° / 260° Clermont-Ferrand_Auvergne

Altitude Profile

Advertisement - Login to hide

LFLB

Details ICAO LFLB (CMF)
Name Aix-Les-Bains
Region France
Timezone Europe/Paris (UTC+2.0)
Stats Elevation 779 ft / 237 m (AMSL)
Location 45.636234° 5.880898°
Runways 2
Magnetic Variation 1.742° E

METAR

LFLB 232230Z AUTO 17002KT CAVOK 11/11 Q1019

Decode

TAF

TAF TAF LFLB 231913Z 2319/2412 CNL

Decode

Departure Runways

ID Width Length Bearing (true) Bearing (mag) Surface Threshold Offset Overrun Length
18 148 ft / 45 m 5,452 ft / 1,662 m 176.72° 174.98° Asphalt 26 ft / 8 m 774 ft / 236 m
18L 197 ft / 60 m 2,309 ft / 704 m 176.70° 174.96° Grass 0 ft / 0 m 0 ft / 0 m
36 148 ft / 45 m 5,452 ft / 1,662 m 356.72° 354.98° Asphalt 23 ft / 7 m 456 ft / 139 m
36R 197 ft / 60 m 2,309 ft / 704 m 356.70° 354.96° Grass 315 ft / 96 m 0 ft / 0 m

LFLC

Details ICAO LFLC (CFE)
Name Clermont-Ferrand_Auvergne
Region France
Timezone Europe/Paris (UTC+2.0)
Stats Elevation 1,089 ft / 332 m (AMSL)
Location 45.786712° 3.169967°
Runways 1
Magnetic Variation 1.034° E

METAR

LFLC 232230Z AUTO VRB02KT CAVOK 13/11 Q1018 NOSIG

Decode

TAF

TAF LFLC 232000Z 2321/2421 VRB03KT CAVOK PROB30 TEMPO 2403/2407 3000 BR BECMG 2409/2411 FEW040CB PROB30 TEMPO 2411/2418 VRB15KT 4000 TSRA BKN040CB BECMG 2418/2420 CAVOK

Decode

Destination Runways

ID Width Length Bearing (true) Bearing (mag) Surface Threshold Offset Overrun Length
08 148 ft / 45 m 9,878 ft / 3,011 m 81.95° 80.92° Asphalt 0 ft / 0 m 0 ft / 0 m
26 148 ft / 45 m 9,878 ft / 3,011 m 261.98° 260.95° Asphalt 476 ft / 145 m 0 ft / 0 m

Approach Navaids

Runway Type Ident Frequency Range Bearing (true) Bearing (mag) Slope Elevation
26 Localiser CF 111.10 MHz 27 nm / 50 km 261.98° 260.95° - 1,089 ft / 332 m (AMSL)
26 Glidescope CF 111.10 MHz 27 nm / 50 km 261.98° 260.95° 3.00° 1,089 ft / 332 m (AMSL)
26 DME CF 111.10 MHz 27 nm / 50 km - - - 1,089 ft / 332 m (AMSL)

Popular Alternatives